Date String (YYYY-MM-DD hh:mm:ss) UTC,Instrument flags,absolute air pressure of the measurement (hPa),sample flow rate (lpm),inlet stack bypass flow (lpm),air temperature of the measurement (°C),ambient temperature measured by the external sensor (°C),aerosol sample conditioner tube jacket temperature (°C),OPC LED temperature (°C),internal box temperature (°C),relative humidity of the measurement (%),span deviation,mass concentration of particles derived from Lorenz-Mie calculation of OPC scattering (μg/m³),mass concentration of particles derived from Lorenz-Mie calculation of OPC scattering (μg/m³),mass concentration of particles derived from Lorenz-Mie calculation of OPC scattering (μg/m³)
DateTimeUTC,F1_M11,P_M11,Q1_M11,Q2_M11,T1_M11,T2_M11,T3_M11,T4_M11,T5_M11,U1_M11,ZSPAN_M11,X2_M11,X0_M11,X1_M11
2023-10-20 13:00:00,SystemResetWarning,0832.2,5.00,000.00,029.1,027.6,000.0,037.5,030.7,7.7,0000.0,0000.68,0003.29,0000.46
2023-10-20 13:01:00,SystemResetWarning,0832.2,4.99,000.00,029.1,027.6,000.0,037.5,030.7,7.7,0000.0,0000.63,0003.24,0000.45
2023-10-20 13:02:00,SystemResetWarning,0832.1,5.00,000.00,029.1,027.6,000.0,037.5,030.7,7.8,0000.0,0000.61,0003.29,0000.44
2023-10-20 13:03:00,SystemResetWarning,0832.1,5.00,000.00,029.1,027.6,000.0,037.5,030.7,7.9,0000.0,0000.61,0004.58,0000.45
2023-10-20 13:04:00,SystemResetWarning,0832.1,5.00,000.00,029.1,027.6,000.0,037.5,030.7,7.9,0000.0,0000.62,0004.57,0000.45
2023-10-20 13:05:00,SystemResetWarning,0832.2,5.00,000.00,029.1,027.6,000.0,037.5,030.7,7.8,0000.0,0000.62,0004.54,0000.45
2023-10-20 13:06:00,SystemResetWarning,0832.2,5.00,000.00,029.1,027.6,000.0,037.5,030.7,7.8,0000.0,0000.61,0004.39,0000.45
2023-10-20 13:07:00,SystemResetWarning,0832.2,5.00,000.00,029.1,027.7,000.0,037.5,030.7,7.8,0000.0,0000.60,0004.40,0000.45
2023-10-20 13:08:00,SystemResetWarning,0832.2,5.00,000.00,029.1,027.7,000.0,037.5,030.7,7.8,0000.0,0000.62,0004.37,0000.45
2023-10-20 13:09:00,SystemResetWarning,0832.2,5.00,000.00,029.1,027.7,000.0,037.5,030.7,7.8,0000.0,0000.61,0003.59,0000.45
2023-10-20 13:10:00,SystemResetWarning,0832.2,5.00,000.00,029.1,027.7,000.0,037.5,030.8,7.8,0000.0,0000.61,0002.52,0000.44
2023-10-20 13:11:00,SystemResetWarning,0832.2,5.01,000.00,029.1,027.7,000.0,037.6,030.8,7.8,0000.0,0000.61,0002.57,0000.44
2023-10-20 13:12:00,SystemResetWarning,0832.2,5.00,000.00,029.1,027.7,000.0,037.6,030.8,7.8,0000.0,0000.63,0002.99,0000.45
2023-10-20 13:13:00,SystemResetWarning,0832.2,5.00,000.00,029.1,027.7,000.0,037.6,030.8,7.8,0000.0,0000.62,0002.93,0000.44
2023-10-20 13:14:00,SystemResetWarning,0832.2,5.00,000.00,029.2,027.7,000.0,037.6,030.8,7.8,0000.0,0000.62,0001.76,0000.43
2023-10-20 13:15:00,SystemResetWarning,0832.2,5.00,000.00,029.2,027.7,000.0,037.6,030.8,7.8,0000.0,0000.61,0001.62,0000.43
2023-10-20 13:16:00,SystemResetWarning,0832.2,5.00,000.00,029.2,027.7,000.0,037.6,030.8,7.8,0000.0,0000.61,0001.61,0000.42
2023-10-20 13:17:00,SystemResetWarning,0832.2,5.00,000.00,029.2,027.8,000.0,037.6,030.8,7.8,0000.0,0000.60,0001.59,0000.43
2023-10-20 13:18:00,SystemResetWarning,0832.2,5.00,000.00,029.2,027.8,000.0,037.6,030.8,7.8,0000.0,0000.61,0001.60,0000.42
2023-10-20 13:19:00,SystemResetWarning,0832.2,5.00,000.00,029.2,027.8,000.0,037.6,030.8,7.8,0000.0,0000.64,0001.71,0000.42
2023-10-20 13:20:00,SystemResetWarning,0832.2,5.00,000.00,029.2,027.8,000.0,037.6,030.9,7.7,0000.0,0000.69,0001.96,0000.42
2023-10-20 13:21:00,SystemResetWarning,0832.2,5.01,000.00,029.2,027.8,000.0,037.6,030.8,7.7,0000.0,0000.69,0001.94,0000.42
2023-10-20 13:22:00,SystemResetWarning,0832.2,5.00,000.00,029.2,027.8,000.0,037.6,030.8,7.7,0000.0,0000.67,0001.69,0000.42
2023-10-20 13:23:00,SystemResetWarning,0832.2,5.00,000.00,029.2,027.8,000.0,037.6,030.8,7.8,0000.0,0000.67,0001.34,0000.42
2023-10-20 13:24:00,SystemResetWarning,0832.2,4.98,000.00,029.2,027.8,000.0,037.6,030.8,7.7,0000.0,0000.69,0001.50,0000.43
2023-10-20 13:25:00,SystemResetWarning,0832.2,5.00,000.00,029.2,027.8,000.0,037.6,030.8,7.7,0000.0,0000.75,0002.94,0000.44
2023-10-20 13:26:00,SystemResetWarning,0832.2,5.01,000.00,029.2,027.8,000.0,037.6,030.8,7.7,0000.0,0000.78,0003.01,0000.44
2023-10-20 13:27:00,SystemResetWarning,0832.2,5.00,000.00,029.2,027.8,000.0,037.6,030.8,7.7,0000.0,0000.82,0003.14,0000.44
2023-10-20 13:28:00,SystemResetWarning,0832.2,5.00,000.00,029.2,027.8,000.0,037.6,030.9,7.7,0000.0,0000.83,0003.17,0000.43
2023-10-20 13:29:00,SystemResetWarning,0832.2,4.99,000.00,029.2,027.8,000.0,037.6,030.9,7.7,0000.0,0000.86,0003.21,0000.44
2023-10-20 13:30:00,SystemResetWarning,0832.2,4.99,000.00,029.2,027.8,000.0,037.6,030.9,7.7,0000.0,0000.84,0003.14,0000.45
2023-10-20 13:31:00,SystemResetWarning,0832.2,5.01,000.00,029.3,027.8,000.0,037.7,030.9,7.7,0000.0,0000.81,0002.94,0000.44
2023-10-20 13:32:00,SystemResetWarning,0832.3,5.01,000.00,029.3,027.8,000.0,037.7,030.9,7.7,0000.0,0000.80,0002.93,0000.43
2023-10-20 13:33:00,SystemResetWarning,0832.3,4.98,000.00,029.3,027.8,000.0,037.7,030.9,7.7,0000.0,0000.80,0002.94,0000.43
2023-10-20 13:34:00,SystemResetWarning,0832.3,5.00,000.00,029.3,027.8,000.0,037.7,030.9,7.7,0000.0,0000.79,0002.91,0000.44
2023-10-20 13:35:00,SystemResetWarning,0832.3,5.01,000.00,029.3,027.8,000.0,037.7,030.9,7.7,0000.0,0000.78,0002.85,0000.44
2023-10-20 13:36:00,SystemResetWarning,0832.2,5.00,000.00,029.3,027.9,000.0,037.7,030.9,7.7,0000.0,0000.73,0001.70,0000.43
2023-10-20 13:37:00,SystemResetWarning,0832.2,5.00,000.00,029.3,027.9,000.0,037.7,030.9,7.6,0000.0,0000.67,0001.22,0000.42
2023-10-20 13:38:00,SystemResetWarning,0832.3,5.00,000.00,029.3,027.9,000.0,037.7,030.9,7.6,0000.0,0000.63,0001.10,0000.42
2023-10-20 13:39:00,SystemResetWarning,0832.3,5.00,000.00,029.3,027.9,000.0,037.7,030.9,7.5,0000.0,0000.65,0001.40,0000.43
2023-10-20 13:40:00,SystemResetWarning,0832.3,5.00,000.00,029.3,027.9,000.0,037.7,030.9,7.5,0000.0,0000.67,0001.56,0000.42
2023-10-20 13:41:00,SystemResetWarning,0832.3,4.98,000.00,029.3,027.9,000.0,037.7,030.9,7.5,0000.0,0000.66,0002.39,0000.41
2023-10-20 13:42:00,SystemResetWarning,0832.3,5.00,000.00,029.3,027.9,000.0,037.7,030.9,7.5,0000.0,0000.66,0003.46,0000.42
2023-10-20 13:43:00,SystemResetWarning,0832.3,5.01,000.00,029.3,027.9,000.0,037.7,030.9,7.6,0000.0,0000.70,0003.51,0000.42
2023-10-20 13:44:00,SystemResetWarning,0832.3,5.00,000.00,029.3,027.9,000.0,037.7,030.9,7.6,0000.0,0000.72,0003.59,0000.43
2023-10-20 13:45:00,SystemResetWarning,0832.3,5.00,000.00,029.3,027.9,000.0,037.7,030.9,7.5,0000.0,0000.74,0003.62,0000.42
2023-10-20 13:46:00,SystemResetWarning,0832.4,4.99,000.00,029.3,027.9,000.0,037.7,030.9,7.6,0000.0,0000.75,0003.63,0000.42
2023-10-20 13:47:00,SystemResetWarning,0832.3,5.00,000.00,029.3,027.9,000.0,037.7,031.0,7.6,0000.0,0000.77,0003.66,0000.42
2023-10-20 13:48:00,SystemResetWarning,0832.3,5.02,000.00,029.3,027.9,000.0,037.7,031.0,7.5,0000.0,0000.78,0003.68,0000.42
2023-10-20 13:49:00,SystemResetWarning,0832.3,4.99,000.00,029.4,027.9,000.0,037.7,031.0,7.5,0000.0,0000.78,0003.68,0000.42
2023-10-20 13:50:00,SystemResetWarning,0832.3,5.00,000.00,029.4,028.0,000.0,037.8,031.0,7.5,0000.0,0000.73,0003.36,0000.40
2023-10-20 13:51:00,SystemResetWarning,0832.3,5.00,000.00,029.4,028.0,000.0,037.8,031.0,7.5,0000.0,0000.68,0004.32,0000.40
2023-10-20 13:52:00,SystemResetWarning,0832.3,4.99,000.00,029.4,028.0,000.0,037.8,031.0,7.5,0000.0,0000.66,0003.58,0000.40
2023-10-20 13:53:00,SystemResetWarning,0832.3,5.00,000.00,029.4,028.0,000.0,037.8,031.0,7.5,0000.0,0000.66,0002.48,0000.41
2023-10-20 13:54:00,SystemResetWarning,0832.3,4.99,000.00,029.4,028.0,000.0,037.8,031.0,7.4,0000.0,0000.63,0002.63,0000.40
2023-10-20 13:55:00,SystemResetWarning,0832.3,5.01,000.00,029.4,028.0,000.0,037.8,031.0,7.5,0000.0,0000.58,0003.28,0000.40
2023-10-20 13:56:00,SystemResetWarning,0832.3,4.99,000.00,029.4,028.0,000.0,037.8,031.0,7.4,0000.0,0000.55,0003.22,0000.40
2023-10-20 13:57:00,SystemResetWarning,0832.3,4.99,000.00,029.4,028.0,000.0,037.8,031.0,7.4,0000.0,0000.52,0003.17,0000.40
2023-10-20 13:58:00,SystemResetWarning,0832.3,5.02,000.00,029.4,028.0,000.0,037.8,031.0,7.4,0000.0,0000.51,0003.15,0000.40
2023-10-20 13:59:00,SystemResetWarning,0832.3,5.00,000.00,029.4,028.1,000.0,037.8,031.1,7.4,0000.0,0000.49,0003.13,0000.40
